Terug naar catalogus

FENGYUN 1C DEB

LostSSO
NORAD 36715·DEBRIS·🇨🇳 China

Gelanceerd May 10, 1999 vanaf Taiyuan Satellite Launch Center

Loading…

Volgende Passages (komende 24 uur)

TLE

VerouderdSource: Space-Track

Epoch: Mar 4, 2014, 21:11 UTC

1 36715U 99025EAM 14063.88304835 +.00003532 +00000-0 +78678-3 0  9992
2 36715 098.4915 102.4330 0195372 096.9632 270.2058 14.46367213279329

Volg FENGYUN 1C DEB in realtime met AllMySat

Download on the App Store